Location: Bogotá
(4.6533°N, 74.0837°W)
Time: 21:59:35
(UTC+00:00)

ISS - Pass Details

Date: 13 February 2024
Orbit: 415 x 417 km, 51.6° (Epoch: 20 February)

Event Time Altitude Azimuth Distance (km) Brightness Sun altitude
Exits shadow 09:37:08 44° 108° (ESE) 587 -2.6 -23.8°
Drops below altitude 10° 09:40:03 10° 51° (NE) 1,482 -0.5 -23.1°
Sets 09:42:11 0° 45° (NE) 2,344 0.5 -22.5°
